Dewpoint
59 51 49 44 44 39 30 26 10 13 8 3 -2 -3 -3 -6 -3 -3 -5 4 2 35 36 37 33 33 42 42 39 45 48 45 49 43 55 64 63 63 64 66 65 66 67 67 69 71 71 73 74 73 73 73 73 73 73 73 73 72 72 72 71 71 70 70 70 70 70 70 69 69 68 68 69 69 69 69 70 70 71 71 71 71 71 71 70 71 71 71 71 71 71 71 70 70 71 71 70
47 42 39 42 39 35 29 22 16 3 0 2 1 -1 -4 2 5 -5 -12 4 31 36 34 39 42 39 44 43 37 35 49 55 58 61 63 63 63 64 66 68 67 68 68 67 68 69 69 72 73 73 73 73 73 73 73 72 72 72 71 71 71 71 70 70 70 69 69 69 68 68 68 68 70 70 70 71 72 71 72 71 71 71 71 71 70 70 71 71 71 71 70 70 70 71 71 71 71
35 32 33 31 35 28 28 18 5 5 -1 -3 -3 -3 -1 -2 -5 -6 10 16 23 25 30 32 43 43 33 32 33 41 49 56 60 61 62 64 62 66 68 68 68 69 69 68 67 66 68 71 73 73 73 73 72 72 72 72 71 71 71 71 70 70 69 69 69 69 69 69 68 68 68 68 70 71 71 71 71 71 71 71 71 71 71 71 70 70 70 71 70 70 70 70 70 70 71 71 71
46 38 35 27 26 17 11 11 7 -3 -5 -5 -5 -6 -1 -4 -8 7 13 17 18 24 27 28 36 42 46 33 36 42 47 54 59 59 61 61 61 66 68 70 70 68 68 66 66 65 69 72 73 72 72 72 72 71 71 71 71 71 70 70 70 70 69 69 69 69 68 68 68 68 68 68 70 71 71 72 71 71 71 71 71 71 71 71 71 70 70 70 70 70 70 70 70 70 70 70 70
37 34 30 31 22 26 11 9 7 6 -0 -7 -7 -2 -4 -8 3 12 15 15 21 25 27 36 37 39 47 43 48 43 51 56 59 59 60 65 66 68 70 70 68 67 67 65 65 66 70 72 73 72 72 72 71 71 71 70 70 70 70 70 70 69 69 69 69 69 68 68 68 68 68 69 69 70 71 71 71 71 71 72 71 71 71 70 70 71 71 70 70 70 69 70 69 70 70 69 70
33 29 22 29 24 26 23 12 9 5 1 -3 -9 -6 -3 8 12 13 15 14 23 26 27 32 35 26 38 48 52 49 55 50 57 56 61 64 69 70 70 71 67 66 66 66 66 70 70 73 72 72 72 71 71 71 70 71 70 70 70 70 70 69 69 69 68 68 68 68 68 68 68 68 69 70 71 72 72 71 71 71 71 71 71 70 70 69 69 69 69 69 69 69 70 70 69 69 70
24 24 23 15 18 19 16 10 1 -3 -3 -4 -9 -9 -1 6 11 13 12 14 21 23 26 28 41 38 35 46 53 57 58 57 57 54 62 67 69 71 71 69 67 66 66 66 67 69 69 72 72 72 72 71 71 71 71 70 70 70 70 70 69 69 69 69 69 68 68 68 68 68 68 68 69 71 71 72 72 72 71 71 70 70 70 70 70 69 68 68 69 70 69 70 70 70 70 70 70
31 24 24 16 14 12 5 2 -1 -1 -2 -1 -4 -10 11 12 14 12 12 10 17 22 21 28 32 34 41 44 46 57 61 59 59 64 65 68 70 70 70 69 68 66 66 68 70 70 72 72 72 72 71 71 71 71 71 70 70 70 70 69 69 69 69 69 69 69 69 69 68 68 68 68 69 70 71 71 71 71 70 70 70 70 70 70 69 69 70 70 70 71 71 70 70 70 70 70 70
20 21 30 18 12 12 11 4 -2 -2 1 6 3 6 31 12 14 14 13 13 16 22 19 24 29 34 35 44 50 58 60 58 63 66 66 68 68 69 70 69 66 66 66 69 70 70 69 72 72 72 71 71 71 71 71 70 70 70 70 70 69 70 69 69 69 69 69 70 70 69 68 68 69 70 71 70 70 70 70 70 70 70 70 70 69 68 69 70 70 70 70 70 70 70 70 70 70
19 12 20 11 4 7 7 5 -0 0 2 0 -4 3 3 6 10 12 11 13 14 14 27 28 30 36 35 47 49 54 59 59 63 65 67 68 69 71 69 68 67 66 67 69 70 68 69 72 72 71 71 71 71 71 71 71 70 70 70 70 70 70 70 70 70 70 69 69 69 69 68 69 70 71 71 71 70 70 70 70 69 69 70 69 69 68 69 70 71 70 70 70 70 70 70 69 69
20 13 12 18 12 4 4 4 -3 -3 -2 -2 -3 2 8 11 12 11 11 12 12 16 36 35 30 37 35 48 59 58 58 59 62 65 67 69 70 68 68 68 67 67 68 70 69 68 69 69 72 71 71 72 71 71 71 71 71 71 71 71 71 70 70 71 71 70 70 70 69 70 70 70 71 70 70 70 70 70 69 69 69 69 70 69 68 68 69 70 70 70 70 70 70 69 69 69 69
16 15 7 9 11 7 -1 -5 -4 -4 -7 -3 -5 8 11 10 10 8 9 14 15 27 30 31 27 32 40 46 51 61 59 59 63 66 69 69 68 68 68 67 68 67 69 69 67 68 67 68 69 71 71 72 72 71 71 71 71 71 71 71 71 71 71 71 71 71 71 71 71 71 70 70 70 70 70 70 69 69 69 69 69 70 69 69 68 68 70 70 70 70 70 70 69 69 69 69 68
13 16 11 5 -1 -2 -2 3 -1 -7 -6 -5 5 11 13 11 7 8 9 13 17 31 30 26 35 28 39 51 59 61 57 60 65 67 68 67 68 68 68 68 68 67 69 69 68 67 68 67 67 69 70 71 71 71 71 71 71 71 71 71 71 71 71 70 70 71 72 71 71 70 70 70 70 70 70 70 70 69 69 70 70 69 69 69 68 69 70 71 71 70 70 70 69 69 69 68 68
11 14 14 10 1 -1 1 0 -4 -5 -9 3 9 12 13 9 9 11 9 11 23 28 31 38 33 34 48 51 54 58 59 64 67 68 67 68 69 68 69 67 68 69 69 69 68 68 68 65 68 67 69 69 70 70 71 71 71 71 71 71 71 71 71 70 71 71 71 71 71 70 70 70 70 70 70 70 70 69 69 69 69 69 69 69 69 69 70 71 71 70 70 70 69 69 69 68 67
11 9 14 12 5 6 3 0 -9 -9 -10 9 12 9 15 23 15 13 9 16 27 41 38 36 41 36 43 44 50 50 59 65 67 69 70 69 69 68 69 68 69 69 68 70 68 68 66 66 67 69 69 68 69 68 69 71 71 71 71 71 71 71 71 71 71 71 71 71 71 70 71 71 71 71 70 70 70 69 69 69 68 68 69 69 69 69 70 71 71 70 70 70 69 69 68 68 67
15 18 15 14 4 5 2 -5 -2 -13 7 10 12 12 19 24 25 21 16 42 38 41 32 38 47 49 37 48 49 56 63 66 68 70 69 70 70 71 69 70 68 68 69 69 69 68 68 67 70 68 68 68 69 69 69 70 71 71 71 71 71 71 71 70 71 71 70 71 71 71 71 72 71 70 71 70 69 69 69 68 68 68 68 69 68 69 70 70 71 70 70 69 69 68 68 68 67
12 18 15 9 7 3 -3 -7 0 -6 10 11 13 13 18 23 27 38 43 41 33 32 39 37 43 51 54 51 59 63 64 67 69 71 70 69 68 69 70 68 69 68 69 69 69 69 70 71 70 70 70 69 68 69 69 70 70 71 71 71 71 72 71 71 71 70 70 70 70 71 72 71 71 71 69 67 69 68 70 69 68 68 68 68 69 70 70 70 70 70 70 69 69 68 68 67 67
14 16 12 12 5 1 -3 -8 -3 9 10 11 12 15 28 28 26 31 37 35 35 32 39 48 50 56 52 53 61 64 65 67 69 69 68 68 68 67 68 68 67 67 68 68 69 70 71 70 70 69 71 70 71 71 69 69 71 70 70 70 69 71 71 71 70 68 69 69 70 70 70 68 69 68 68 68 67 69 69 69 68 68 68 69 70 70 70 70 70 70 69 69 69 68 67 64 66
13 12 10 9 3 -1 -4 4 10 9 12 12 12 15 19 27 25 27 29 32 37 31 40 40 46 53 52 53 60 63 65 68 68 69 68 67 66 67 66 68 68 67 67 67 68 69 70 70 70 70 70 69 70 70 70 70 70 70 69 69 69 70 70 70 69 68 66 67 67 67 70 71 68 67 68 65 66 68 69 68 68 68 68 69 70 70 70 69 69 70 69 69 68 68 66 63 60
13 12 8 6 5 2 5 15 14 16 15 12 11 12 13 38 36 23 32 30 36 32 37 37 43 50 51 57 62 63 64 66 68 68 67 66 65 66 66 66 66 69 68 70 69 70 69 70 70 71 69 70 70 70 70 71 70 71 70 70 69 68 68 68 69 68 66 66 67 71 73 71 71 72 68 67 68 68 69 68 68 68 68 69 70 69 69 69 69 70 69 69 68 65 65 61 60
10 11 11 7 3 8 6 12 16 16 15 13 11 12 12 34 23 26 34 30 31 31 35 36 40 48 48 52 58 62 64 65 66 67 66 66 66 66 66 66 66 68 68 69 68 68 70 69 70 70 70 70 70 70 70 70 70 71 71 71 71 72 69 69 69 69 70 68 70 70 71 70 71 71 69 67 66 66 67 67 67 66 66 66 69 66 68 68 69 67 67 66 64 64 61 62 61
11 8 11 8 13 8 3 8 16 16 15 12 11 9 8 13 16 23 34 30 28 31 34 35 39 48 51 49 56 63 63 65 65 66 66 66 66 66 67 66 68 67 67 67 68 70 69 70 70 69 70 70 71 71 70 70 72 71 69 71 70 70 70 71 71 71 71 72 70 70 70 70 70 69 69 67 65 65 64 64 63 63 63 63 64 62 62 68 66 64 63 62 63 64 63 63 61
12 17 14 11 12 1 10 12 16 15 12 12 10 10 11 11 16 21 30 26 33 35 36 39 41 51 50 58 62 63 63 65 65 65 66 66 65 65 65 66 66 66 68 67 68 70 69 70 70 70 71 71 70 71 70 70 71 70 70 71 70 70 71 69 71 71 70 69 70 70 70 70 71 71 70 69 66 65 64 62 60 61 62 62 61 61 63 63 63 63 63 63 63 62 61 61 59
9 7 10 8 13 6 14 13 16 14 14 13 11 10 9 10 17 23 32 20 32 35 38 41 42 44 48 51 60 64 63 64 65 66 66 65 65 65 66 66 66 67 68 68 68 69 69 70 70 69 68 71 71 70 70 68 71 70 69 70 69 71 71 70 71 71 70 71 70 70 70 71 70 70 69 70 70 65 64 64 64 60 60 61 60 61 62 63 63 63 64 62 62 61 59 59 58
9 5 10 11 7 7 12 14 14 14 14 13 10 8 8 9 12 26 26 19 29 32 35 39 44 42 52 51 60 63 64 65 65 66 66 64 65 66 65 66 67 67 66 69 69 68 70 68 69 69 69 68 70 71 70 71 70 70 70 71 71 69 69 70 70 71 70 71 70 69 70 70 70 68 69 70 71 68 68 65 65 63 62 61 59 60 62 63 64 63 63 62 63 61 59 59 58
11 6 5 10 8 8 11 13 13 14 12 11 9 7 7 8 10 18 15 21 27 29 34 36 39 48 53 59 61 63 64 65 66 66 65 66 67 65 65 65 65 66 67 68 68 68 69 69 68 69 69 69 69 70 70 68 70 70 69 69 70 69 70 69 68 68 68 70 67 69 70 71 70 70 69 70 70 69 69 67 65 64 63 60 60 61 61 61 62 63 63 63 59 61 59 60 59
9 5 2 6 7 7 8 10 14 12 12 10 7 7 7 8 8 5 8 21 24 28 33 36 36 41 45 54 59 63 64 65 65 66 66 67 66 66 65 65 64 65 67 67 68 67 68 68 67 69 70 69 71 69 69 70 70 70 69 69 69 69 68 69 67 67 66 67 68 70 70 70 70 68 69 69 70 69 68 69 67 65 63 62 61 60 62 62 63 63 63 63 61 60 59 59 58
14 10 1 3 6 7 9 12 13 12 11 11 8 6 6 7 7 6 7 20 24 27 32 35 35 47 56 60 60 62 64 65 64 65 66 66 65 66 66 65 67 67 66 66 66 67 68 68 68 68 68 70 69 69 69 69 70 68 69 70 69 67 70 67 67 67 66 66 68 69 71 70 69 70 69 69 68 68 69 70 68 65 63 63 62 60 60 61 63 63 63 64 63 62 61 61 60
7 13 8 5 7 8 10 10 12 14 9 9 9 5 6 5 4 27 23 25 25 29 30 33 35 46 53 54 59 58 62 64 64 65 66 65 66 66 66 67 67 65 66 67 67 68 68 68 68 67 69 69 68 68 69 69 69 68 69 69 69 68 68 68 66 67 67 68 69 69 69 69 68 68 70 71 68 69 69 69 69 67 65 64 64 62 61 62 62 64 65 64 64 64 63 62 59
8 11 8 4 4 4 10 12 12 11 9 8 7 6 5 5 9 24 23 27 29 31 31 31 35 44 50 53 60 61 61 63 63 64 65 65 66 67 67 67 67 67 67 67 68 69 69 69 68 69 69 70 69 68 69 68 69 69 68 67 67 68 67 66 66 68 68 66 67 69 69 69 69 69 69 70 70 69 68 67 68 70 67 66 65 64 61 62 60 63 63 63 63 63 63 63 61
6 8 5 7 3 2 5 10 10 9 8 7 6 9 4 5 9 13 26 29 26 25 26 33 34 41 53 54 54 59 62 63 65 66 66 67 67 67 67 67 67 68 67 68 68 69 69 69 69 69 69 69 69 69 68 69 69 67 66 67 67 68 67 66 66 67 66 66 66 66 69 69 69 68 69 70 69 68 67 68 67 67 68 67 68 65 64 62 62 59 61 62 64 64 62 63 61
5 4 3 3 7 1 2 8 9 8 7 7 5 9 5 7 13 13 16 27 29 28 31 32 42 57 50 50 53 51 61 64 64 65 66 66 67 66 67 67 67 68 68 68 68 69 69 69 69 69 69 70 70 69 69 70 69 69 67 67 67 68 66 66 66 66 67 65 65 66 68 69 69 69 68 68 69 69 68 68 68 68 68 67 66 69 68 65 62 60 62 62 62 63 63 62 63
5 4 9 1 5 0 -0 5 8 9 6 6 4 1 20 24 22 20 24 24 28 30 32 38 49 58 53 49 50 53 57 61 62 63 65 66 66 66 66 67 67 68 69 68 68 68 68 70 69 69 69 69 70 70 69 69 69 68 68 68 67 68 66 66 65 66 67 67 67 65 67 69 69 69 68 68 69 69 68 68 67 68 68 68 67 66 67 66 65 61 62 62 62 63 61 61 63
5 0 7 1 -1 -1 -1 5 7 7 5 4 4 6 26 30 28 23 18 25 26 26 31 35 40 48 55 57 56 55 54 60 62 63 64 65 65 66 67 66 67 67 67 68 68 68 69 69 68 68 69 69 69 69 69 68 69 68 68 67 67 66 67 66 65 66 66 67 67 66 66 67 69 69 69 68 68 68 67 68 68 67 68 69 69 68 68 67 68 63 62 63 62 63 61 61 62
9 8 11 4 -2 2 2 4 6 6 4 4 5 2 27 30 32 32 29 22 19 27 31 37 39 42 46 53 56 57 58 60 62 63 65 65 66 66 66 67 67 67 67 68 68 68 68 68 69 69 68 68 68 68 67 68 68 68 68 66 67 67 67 67 67 65 66 67 66 67 66 67 68 69 68 68 68 67 67 67 67 68 68 69 66 66 67 66 66 65 65 64 63 63 62 62 62
5 4 4 4 1 2 3 4 6 6 5 2 3 4 28 28 33 34 37 35 37 38 42 40 40 43 44 51 55 58 60 60 62 64 66 66 66 66 66 67 66 67 67 67 68 68 69 69 69 69 67 67 68 68 67 66 66 64 65 65 65 66 67 66 67 66 67 67 67 67 67 68 68 68 68 68 68 68 67 67 66 67 67 67 68 67 66 65 65 65 65 66 65 64 63 62 62
5 4 1 8 1 -1 1 4 5 6 4 3 5 5 27 34 37 39 41 42 41 40 41 41 45 45 46 54 60 59 61 61 62 63 64 65 66 66 66 67 67 67 66 67 67 67 68 66 66 68 67 67 66 65 66 65 64 64 64 63 63 64 66 67 67 68 67 66 67 66 66 69 68 67 67 66 67 67 67 68 67 66 67 67 66 67 66 66 67 66 66 67 66 65 63 62 62
6 5 -0 5 4 -2 -0 3 5 5 13 3 7 9 31 38 40 41 44 47 47 47 48 49 47 45 55 52 55 59 61 62 63 64 65 65 64 66 66 66 66 66 65 66 67 67 66 66 65 65 66 65 65 66 67 66 66 64 64 64 65 68 67 64 65 66 68 68 67 67 67 66 66 67 67 66 67 67 67 67 68 67 67 67 68 68 67 68 66 64 66 66 64 67 63 61 61
11 8 3 3 1 -1 3 5 5 4 4 5 3 17 31 33 38 43 46 47 49 50 50 50 52 53 55 58 58 60 60 60 60 61 62 62 64 65 65 65 66 66 66 66 66 66 65 66 66 66 66 65 65 65 65 65 66 66 65 67 67 68 68 67 67 68 68 68 68 67 68 67 67 66 66 67 66 67 67 67 68 68 67 67 67 67 67 67 66 66 65 64 63 64 63 62 63
15 9 6 1 -2 -3 3 8 7 3 7 15 23 27 35 37 38 45 47 48 50 51 52 54 54 54 54 55 56 57 57 57 58 58 59 59 60 60 61 62 63 63 62 63 63 64 64 64 65 65 64 65 65 67 65 66 67 67 67 67 68 68 66 67 67 68 68 67 67 67 67 66 67 66 66 65 67 66 67 66 68 68 67 66 68 66 66 67 66 66 65 64 65 63 60 60 63
17 9 0 -2 -2 -6 2 7 8 10 11 22 24 28 36 36 37 41 45 47 49 50 52 52 53 53 54 54 55 55 55 56 56 57 58 58 58 58 59 60 61 61 62 62 62 62 63 64 64 64 65 64 65 64 65 66 66 66 66 67 67 67 67 67 67 65 66 67 66 67 67 66 66 66 67 66 65 66 66 67 68 68 67 69 66 67 66 66 66 67 65 65 63 64 61 61 62
12 10 2 -1 -2 -1 5 10 7 9 10 16 20 20 27 31 33 36 42 44 46 50 50 50 51 52 51 52 53 53 54 54 55 55 56 57 57 58 58 59 59 60 61 62 63 64 63 62 63 63 64 65 64 65 66 66 66 65 65 65 65 66 65 64 64 64 64 65 64 66 66 65 65 66 66 65 65 66 67 67 67 67 66 66 68 68 67 67 66 67 66 65 63 64 64 60 62
11 6 5 1 -2 2 4 7 10 12 11 19 23 19 20 29 31 37 41 43 45 49 49 49 49 49 50 50 50 51 52 53 54 55 55 56 57 57 57 58 59 59 60 62 62 62 63 64 64 64 63 64 64 65 65 66 65 65 65 65 64 64 64 65 66 66 66 65 66 66 66 66 65 66 66 65 65 66 67 67 66 67 67 66 66 67 67 66 67 66 67 66 65 64 65 61 61
6 6 4 3 -1 -0 7 8 10 10 13 18 19 16 19 28 32 38 40 42 44 47 49 48 48 48 49 49 50 51 51 52 53 53 54 56 56 57 57 57 58 58 59 60 61 61 62 62 63 64 64 64 65 65 64 65 65 65 65 64 64 64 64 65 65 65 66 66 66 66 66 67 66 65 65 64 65 65 67 68 67 68 67 67 65 65 66 67 67 67 66 66 66 64 65 63 63
6 7 4 5 4 2 9 10 11 11 14 14 17 14 14 26 38 39 39 41 43 44 47 48 47 47 48 49 49 49 50 51 52 53 54 54 55 55 56 56 57 58 58 59 60 60 61 61 61 62 62 63 64 65 65 65 65 65 64 64 64 63 64 64 64 65 64 65 65 65 65 66 66 66 65 64 64 64 65 67 66 65 66 67 65 65 66 67 66 66 66 67 66 66 65 65 64
6 8 7 6 6 3 3 10 9 11 15 14 17 18 13 16 36 42 40 40 42 45 47 47 47 47 48 48 48 49 50 51 52 52 53 54 54 55 56 56 56 57 58 58 58 59 59 59 60 60 61 62 63 65 64 65 65 65 64 65 65 65 64 64 64 64 63 64 64 65 65 64 65 65 67 67 66 64 64 64 66 67 67 66 66 66 65 66 66 66 66 65 66 65 66 66 65
6 6 8 6 5 7 9 10 9 16 10 14 17 20 16 15 36 38 37 38 45 46 46 47 47 47 47 48 48 48 48 49 50 51 52 53 53 54 55 55 55 56 56 57 58 58 58 58 59 59 60 60 61 62 64 64 64 63 63 63 63 63 64 64 63 64 63 64 64 64 64 63 64 64 66 67 65 64 64 64 66 67 66 65 65 65 66 67 66 67 66 66 65 65 66 66 66
5 7 11 8 9 8 12 11 10 9 8 8 12 16 15 9 38 41 42 42 44 46 46 46 46 46 47 47 47 47 48 49 49 50 50 52 52 53 53 53 54 54 55 56 56 57 57 57 57 58 58 59 60 61 62 62 63 63 63 63 63 63 63 62 62 62 62 62 63 62 63 62 63 65 65 66 66 65 65 64 65 66 65 66 65 65 66 68 67 66 66 65 66 66 65 65 65
2 10 12 10 8 9 9 10 11 8 6 10 10 10 12 10 35 42 44 44 43 46 46 45 45 45 46 46 47 47 47 48 48 49 50 51 51 51 52 52 53 54 54 55 55 56 56 56 56 56 57 58 58 59 61 61 61 62 63 63 63 63 62 62 62 62 62 62 62 62 63 62 62 64 64 65 65 65 65 65 65 65 65 65 66 67 67 67 67 65 65 65 65 64 65 65 65
5 10 13 9 7 8 11 8 10 9 10 7 11 9 13 43 44 46 45 46 46 46 46 46 46 46 46 46 46 46 47 47 47 49 49 50 50 50 51 51 51 52 53 53 54 54 54 54 55 55 55 56 57 58 59 60 61 62 62 62 63 63 63 63 63 62 62 63 63 64 64 66 65 65 64 64 65 65 65 65 65 65 65 65 65 66 66 66 66 65 65 65 65 65 65 64 65
6 9 6 10 9 10 11 8 9 8 7 13 9 11 32 33 41 47 45 45 45 45 45 45 46 46 46 45 45 46 47 47 47 48 48 49 50 50 50 51 51 51 52 52 53 53 53 53 53 54 54 55 56 56 57 58 59 60 61 61 62 62 62 62 63 62 62 62 63 64 65 65 64 65 64 64 64 65 65 66 65 65 65 65 65 66 66 65 65 64 65 65 66 65 65 66 66
7 7 4 7 10 12 10 12 11 13 10 15 16 25 40 37 47 46 45 44 44 44 44 45 44 45 45 45 46 45 46 47 47 48 48 48 49 49 50 50 50 50 51 52 52 52 53 53 53 53 53 54 54 55 56 57 57 58 60 60 60 60 61 61 62 63 63 64 65 63 65 66 65 66 65 65 65 65 65 65 65 65 64 65 65 65 64 64 64 66 66 66 64 64 64 64 65
11 4 6 5 7 9 14 21 26 27 16 10 21 40 42 45 49 44 44 43 43 43 43 43 44 44 45 45 45 45 46 46 47 47 47 48 48 48 49 49 49 50 50 50 51 51 52 52 52 52 52 53 53 54 55 55 56 56 58 57 57 58 59 59 61 63 64 64 64 64 65 66 66 65 64 63 66 64 64 65 65 65 64 65 65 65 65 65 65 65 66 66 64 64 65 64 64
6 5 4 6 5 9 16 9 14 12 11 14 25 36 38 38 35 45 42 42 43 43 43 43 44 44 44 44 45 45 46 46 46 46 46 46 47 47 48 48 48 49 49 50 50 51 51 52 51 52 51 51 52 52 53 54 54 55 55 55 56 57 57 58 59 60 62 63 63 63 64 64 65 65 64 64 64 63 64 64 64 64 65 65 65 65 65 65 66 66 65 65 65 66 64 64 64
5 6 7 7 11 9 14 14 13 12 12 16 21 34 38 34 38 42 42 41 42 42 43 43 42 43 43 44 44 45 45 46 46 46 45 46 46 47 47 47 47 48 49 49 49 50 50 51 51 51 51 51 52 51 51 52 53 54 54 54 55 55 56 57 57 58 59 60 62 63 63 63 64 63 63 64 64 63 63 64 65 64 64 64 64 64 65 65 65 64 65 65 64 65 64 65 65
9 6 2 4 11 12 11 13 18 13 10 16 20 23 32 37 42 42 41 42 42 42 42 42 42 43 43 43 44 44 45 45 45 45 45 46 46 46 46 47 47 47 48 49 49 50 50 50 50 50 51 50 51 51 50 52 53 53 52 53 54 53 54 55 56 57 57 58 59 61 62 63 63 64 64 64 62 63 65 64 65 64 64 63 63 64 65 64 64 64 64 63 64 62 62 63 64
9 8 4 4 18 13 11 18 9 12 11 10 14 17 32 42 44 42 42 41 43 43 42 42 42 43 43 43 44 44 45 44 44 44 45 45 46 46 46 47 46 47 48 48 49 48 49 48 49 49 50 49 50 51 50 50 51 52 53 52 53 53 54 54 55 56 57 57 57 58 59 61 62 63 63 63 63 62 61 62 64 62 62 62 63 64 64 65 64 64 65 63 63 63 63 62 63
8 10 11 5 8 8 8 11 9 9 11 13 13 19 39 43 45 45 43 42 43 43 42 42 42 42 43 43 44 44 44 44 44 44 45 45 45 45 45 45 47 47 47 48 47 47 47 48 47 48 47 48 48 48 49 50 50 51 52 52 53 53 53 53 54 55 55 55 56 57 58 59 60 61 63 62 62 62 63 63 62 62 61 61 62 62 63 63 64 64 62 64 63 64 62 62 64